Location: Hilton Head Island
(32.2163°N, 80.7526°W)
Time: 10:56:52
(UTC-05:00)

Vanguard 1 - Visible Passes

Search period start: 10 February 2026 00:00
Search period end: 20 February 2026 00:00
Orbit: 651 x 3820 km, 34.3° (Epoch: 10 February)

Date Brightness Start Highest point End Pass type
(mag) Time Alt. Az. Time Alt. Az. Time Alt. Az.
10 Feb 12.8 19:06:59 10° W 19:25:13 85° N 19:42:40 26° E visible
10 Feb 12.6 21:31:17 10° WNW 21:53:52 86° SSW 21:55:14 82° SE visible
10 Feb 13.6 23:57:59 10° WNW 00:07:48 31° W 00:07:48 31° W visible
11 Feb 12.8 19:26:43 10° W 19:45:29 84° N 20:00:50 31° E visible
11 Feb 12.7 21:51:10 10° WNW 22:13:24 79° SW 22:13:24 79° SW visible
12 Feb 13.8 00:18:26 10° WNW 00:25:58 24° W 00:25:58 24° W visible
12 Feb 12.8 19:46:28 10° W 20:05:45 86° N 20:19:01 38° E visible
12 Feb 12.8 22:11:04 10° WNW 22:31:36 69° SW 22:31:36 69° SW visible
13 Feb 14.0 00:39:14 10° W 00:44:10 18° W 00:44:10 18° W visible
13 Feb 12.7 20:06:12 10° W 20:25:58 89° N 20:37:16 44° ESE visible
13 Feb 12.9 22:31:01 10° WNW 22:49:50 59° WSW 22:49:50 59° WSW visible
14 Feb 14.1 01:00:41 10° W 01:02:25 12° W 01:02:25 12° W visible
14 Feb 12.7 18:03:05 10° W 18:18:14 84° N 18:41:57 10° E visible
14 Feb 12.7 20:25:57 10° WNW 20:46:07 86° SSW 20:55:33 50° ESE visible
14 Feb 13.1 22:51:04 10° WNW 23:08:08 49° WSW 23:08:08 49° WSW visible
15 Feb 12.7 18:22:41 10° W 18:38:22 84° N 19:01:19 12° E visible
15 Feb 12.8 20:45:41 10° WNW 21:06:08 80° SSW 21:13:54 55° SE visible
15 Feb 13.3 23:11:20 10° WNW 23:26:29 40° WSW 23:26:29 40° WSW visible
16 Feb 12.7 18:42:17 10° W 18:58:31 85° N 19:19:43 16° E visible
16 Feb 12.8 21:05:25 10° WNW 21:26:01 72° SSW 21:32:18 58° SSE visible
16 Feb 13.6 23:31:56 10° W 23:44:54 31° WSW 23:44:54 31° WSW visible
17 Feb 12.7 19:01:53 10° W 19:18:38 88° NNE 19:38:11 20° ESE visible
17 Feb 12.9 21:25:14 10° WNW 21:45:45 63° SSW 21:50:47 56° S visible
17 Feb 13.8 23:53:05 10° W 00:03:24 24° WSW 00:03:24 24° WSW visible
18 Feb 12.7 19:21:29 10° WNW 19:38:41 86° SSW 19:56:45 23° ESE visible
18 Feb 13.0 21:45:08 10° WNW 22:05:22 54° SW 22:09:22 51° S visible
19 Feb 14.0 00:15:12 10° W 00:21:58 17° WSW 00:21:58 17° WSW visible
19 Feb 12.8 19:41:05 10° WNW 19:58:39 80° SSW 20:15:25 27° ESE visible
19 Feb 13.2 22:05:14 10° WNW 22:24:51 46° SW 22:28:02 44° SSW visible
